This is the latest recevied weather packets stored in our database for station/object N9VPV. If no packets are shown the sender has not sent any weather packets the latest 10 day(s).
| Time | Temp. | Humidity | Pressure | Rain* | Wind** | Luminosity | Snow |
|---|---|---|---|---|---|---|---|
| 1777607967 | 7.22° C | 82% | 1014.5 hPa | 0 mm | - | 0 W/m² | - |
| 1777607466 | 7.22° C | 81% | 1014.5 hPa | 0 mm | - | 0 W/m² | - |
| 1777606143 | 7.22° C | 80% | 1014.6 hPa | 0 mm | - | 0 W/m² | - |
| 1777605242 | 7.78° C | 79% | 1014.7 hPa | 0 mm | - | 0 W/m² | - |
| 1777604336 | 8.33° C | 78% | 1014.8 hPa | 0 mm | - | 0 W/m² | - |
| 1777603414 | 8.89° C | 76% | 1014.7 hPa | 0 mm | - | 0 W/m² | - |
| 1777602513 | 9.44° C | 75% | 1014.5 hPa | 0 mm | - | 0 W/m² | - |
| 1777601607 | 9.44° C | 74% | 1014.4 hPa | 0 mm | - | 0 W/m² | - |
| 1777600707 | 10° C | 74% | 1014.2 hPa | 0 mm | - | 0 W/m² | - |
| 1777599803 | 10.56° C | 74% | 1014.1 hPa | 0 mm | - | 0 W/m² | - |
| 1777598895 | 10.56° C | 74% | 1014.1 hPa | 0 mm | - | 0 W/m² | - |
| 1777597995 | 10.56° C | 75% | 1014.1 hPa | 0 mm | - | 0 W/m² | - |
| 1777597088 | 10.56° C | 75% | 1014 hPa | 0 mm | - | 0 W/m² | - |
| 1777596189 | 11.11° C | 75% | 1013.5 hPa | 0 mm | - | 0 W/m² | - |
| 1777595284 | 11.67° C | 75% | 1013.3 hPa | 0 mm | - | 0 W/m² | - |
| 1777594376 | 12.78° C | 73% | 1013.1 hPa | 0 mm | - | 0 W/m² | - |
| 1777593474 | 12.78° C | 72% | 1012.8 hPa | 0 mm | - | 0 W/m² | - |
| 1777592981 | 12.78° C | 71% | 1012.8 hPa | 0 mm | - | 0 W/m² | - |
| 1777591655 | 13.33° C | 69% | 1012.8 hPa | 0 mm | - | 0 W/m² | - |
| 1777590756 | 13.33° C | 67% | 1013.1 hPa | 0 mm | - | 0 W/m² | - |
| 1777589853 | 13.89° C | 66% | 1013 hPa | 0 mm | - | 0 W/m² | - |
| 1777588953 | 13.33° C | 68% | 1012.9 hPa | 0 mm | - | 0 W/m² | - |
| 1777588053 | 13.33° C | 68% | 1013.3 hPa | 0 mm | - | 0 W/m² | - |
| 1777587154 | 13.33° C | 67% | 1013.4 hPa | 0 mm | - | 0 W/m² | - |
| 1777586253 | 13.33° C | 65% | 1013.3 hPa | 0 mm | - | 0 W/m² | - |
* Rain latest hour (hover to see other rain measurements)
** Current wind speed in m/s (hover to see current wind gust speed)